Flag for Germany Weather past 2 weeks in Königswinter, North Rhine-Westphalia, Germany

Now
64 °F

Passing clouds.


Feels Like: 64 °F
Forecast: 53 / 68 °F
Wind: 7 mph from West

Location: Bonn-Hangelar

Current Time: Jul 29, 2015 at 6:06:02 PM

Latest Report: Jul 29, 2015 at 5:00 PM


Visibility: 11 mi

Pressure: 29.82 "Hg

Humidity: 67%

Dew point: 52 °F

Location of KönigswinterLocation

Historic Weather in Königswinter — Graph

°F

Königswinter temperature yesterday

Maximum temperature yesterday: 62 °F (at 1:00 PM)
Minimum temperature yesterday: 53 °F (at 5:00 AM)
Average temperature yesterday: 58 °F

Past Weeks' High & Low Weather Summary

 TemperatureHumidityPressure
High89 °F (Jul 17, 5:00 PM)100% (Jul 16, 2:00 AM)30.13 "Hg (Jul 16, 2:00 AM)
Low49 °F (Jul 26, 3:00 AM)31% (Jul 17, 5:00 PM)29.50 "Hg (Jul 25, 7:00 AM)
Average65 °F79%29.90 "Hg
* Reported Jul 14 5:00 PM — Jul 29 5:00 PM, Königswinter, Weather by CustomWeather, © 2015

Note: Actual official high and low records may vary slightly from our data, if they occured in-between our weather recording intervals... More about our weather records

Advertising

Königswinter weather history for previous 24 hours

 ConditionsComfort  
Time TempWeatherWind HumidityBarometerVisibility
5:00 PM
Wed, Jul 29
64 °FPassing clouds.7 mph67%29.82 "Hg11 mi
4:00 PM61 °FLight rain. Scattered clouds.8 mph64%29.81 "Hg28 mi
3:00 PM61 °FLight rain. Partly sunny.10 mph59%29.79 "Hg17 mi
2:00 PM60 °FOvercast.12 mph57%29.79 "Hg12 mi
1:00 PM60 °FOvercast.9 mph61%29.78 "Hg16 mi
12:00 PM60 °FPassing clouds.9 mph61%29.78 "Hg19 mi
11:00 AM59 °FPassing clouds.7 mph73%29.78 "Hg11 mi
10:00 AM56 °FScattered clouds.7 mph87%29.79 "Hg14 mi
9:00 AM52 °FLight rain. Overcast.6 mph97%29.80 "Hg10 mi
8:00 AM51 °FDrizzle. Low clouds.7 mph96%29.80 "Hg9 mi
7:00 AM51 °FLow clouds.6 mph95%29.80 "Hg12 mi
6:00 AM51 °FLight rain. Partly sunny.7 mph93%29.80 "Hg6 mi
5:00 AM51 °FOvercast.7 mph91%29.80 "Hg17 mi
4:00 AM51 °FPassing clouds.7 mph92%29.81 "Hg16 mi
3:00 AM51 °FClear.6 mph89%29.82 "Hg18 mi
2:00 AM53 °FClear.7 mph85%29.82 "Hg19 mi
1:00 AM54 °FPassing clouds.6 mph84%29.81 "Hg19 mi
11:00 PM
Tue, Jul 28
54 °FClear.6 mph78%29.81 "Hg19 mi
10:00 PM58 °FPassing clouds.7 mph65%29.80 "Hg25 mi
9:00 PM60 °FOvercast.8 mph64%29.78 "Hg16 mi
8:00 PM60 °FOvercast.8 mph64%29.78 "Hg25 mi
7:00 PM61 °FOvercast.8 mph61%29.76 "Hg25 mi
6:00 PM61 °FOvercast.9 mph63%29.76 "Hg22 mi
Weather by CustomWeather, © 2015

See weather overviewHow to use our weather pages